Cloud_Cover
69 76 5 11 94 77 100 100 100 100 99 100 100 100 100 100 100 100 100 97 100 100 100 98 100 99 57 30 5 1 0 1 49 100 100 52 100 99 100 58 98 72 47
97 97 82 40 100 100 100 100 100 77 100 93 100 90 30 76 94 85 100 100 100 100 65 8 38 16 4 32 4 2 9 0 15 100 100 100 100 100 100 14 91 31 100
92 100 100 100 100 100 100 100 100 58 98 90 100 27 100 29 7 5 11 64 98 81 94 100 44 29 58 15 5 5 11 25 99 96 100 77 100 100 100 100 99 100 100
95 100 100 100 100 91 100 92 64 78 5 7 3 18 100 100 72 90 100 91 30 49 90 100 94 6 22 7 5 89 100 100 56 51 100 46 100 73 100 100 100 100 100
100 100 100 54 90 100 100 100 87 0 41 33 34 4 21 99 100 79 95 100 95 100 74 100 100 100 100 69 70 94 93 56 25 16 100 100 99 30 5 100 100 100 100
100 100 100 100 100 71 100 92 1 5 0 4 5 5 22 2 0 0 1 0 0 2 0 0 10 5 2 0 1 1 3 4 5 7 59 100 90 14 51 100 100 100 100
100 100 100 91 15 0 0 0 0 0 1 0 0 0 19 22 26 11 7 0 1 0 0 27 0 0 0 0 0 0 0 2 4 14 48 51 29 72 71 100 100 100 84
100 93 8 1 0 0 0 0 0 0 0 0 0 0 0 0 0 0 0 0 0 0 0 0 0 0 0 0 0 0 0 0 6 7 6 0 11 75 100 100 100 100 100
70 11 0 0 0 0 0 0 0 0 0 0 0 0 0 0 0 0 1 3 14 18 38 35 22 4 0 0 0 0 0 0 0 0 0 0 5 45 99 100 100 100 100
63 0 0 0 0 0 0 0 0 0 0 0 0 0 0 0 0 0 0 0 0 0 0 0 0 0 0 0 3 0 0 0 0 0 0 0 0 31 87 100 100 100 100
7 0 0 0 0 0 0 0 0 0 0 0 0 0 0 0 0 0 0 0 3 0 0 0 0 0 0 0 0 0 2 0 0 0 0 0 0 6 100 100 100 100 100
0 0 0 0 0 0 0 0 0 0 0 0 0 0 0 0 0 0 0 0 0 1 3 1 0 4 4 0 0 0 2 3 0 0 0 0 0 5 22 100 100 100 100
0 0 0 0 0 0 0 0 0 0 0 0 2 5 7 5 5 5 5 5 5 5 4 5 5 4 2 0 2 3 0 0 0 0 0 0 0 1 68 100 100 100 100
0 0 0 0 0 0 0 0 0 0 0 0 0 0 5 26 46 36 4 7 18 4 5 5 58 86 50 11 4 1 5 5 0 0 0 0 0 0 0 87 99 100 100
1 5 3 2 0 0 0 0 0 0 0 0 0 0 4 5 5 5 5 5 0 3 0 2 5 5 17 14 38 12 5 5 1 0 0 0 0 0 0 5 100 100 100
4 5 1 1 0 4 5 5 5 3 0 0 0 0 0 4 1 2 0 0 0 0 0 0 1 4 5 5 5 4 5 5 5 5 2 0 0 0 0 1 8 100 100
2 38 1 0 5 5 5 5 5 5 5 5 5 0 0 0 0 0 0 0 0 0 0 0 0 0 1 5 5 5 5 5 5 5 5 5 0 0 0 0 4 15 100
0 0 0 4 5 5 4 2 1 2 2 4 0 0 0 1 0 0 0 0 0 0 0 5 5 5 5 5 4 5 5 5 5 5 5 5 5 2 0 0 0 5 15
0 0 0 4 1 0 5 5 5 5 5 5 5 0 1 2 4 5 5 4 2 2 5 5 5 3 0 1 0 0 0 1 5 4 5 5 5 5 3 0 0 0 2
0 0 0 0 5 5 5 5 5 5 5 2 0 0 0 0 0 4 5 0 0 0 0 0 1 0 2 5 3 5 0 0 0 0 1 2 5 5 5 5 4 0 0
0 0 0 5 5 5 5 5 5 5 5 5 4 1 5 5 5 5 0 1 4 1 3 0 5 4 5 5 5 2 0 0 0 0 0 0 0 0 0 0 5 5 4
1 5 5 5 5 5 5 5 5 5 5 5 5 5 5 5 5 5 5 5 1 0 0 0 0 2 5 5 5 5 5 2 0 0 0 0 0 0 0 0 5 3 5
0 4 5 5 5 5 5 5 5 5 5 16 5 9 5 5 2 2 5 5 5 1 0 0 0 0 5 4 60 55 8 5 4 5 5 1 0 0 0 0 5 5 5
5 5 22 12 24 77 50 17 12 8 45 5 5 5 3 5 5 5 5 0 0 0 0 0 0 4 5 12 26 68 7 5 5 5 5 19 4 3 3 3 3 5 5
5 7 56 94 48 52 5 5 6 8 5 15 8 5 5 5 5 5 5 5 3 0 0 4 0 2 3 85 64 100 83 75 6 5 5 7 5 5 5 5 5 5 3
63 96 89 72 18 18 14 13 5 49 100 43 31 47 5 43 26 21 37 5 5 5 5 5 5 64 3 6 7 92 100 100 99 76 6 10 39 32 95 94 5 5 5